FLOCK 3P-24

Last updated on Feb. 14, 2018, 4:20 p.m. UTC

1 41956U 17008J   18044.91429465  .00002788  00000-0  11703-3 0  9998
2 41956  97.4647 110.3930 0010285  67.2661 292.9662 15.24274711 55331
UTC
Height (km)
Latitude
Longitude
Inclination
Orbital Period
UTC large
Height (km)
Speed (km/s)
/
Latitude / Longitude
Inclination (degrees)
Orbital Period (minutes)
Azimuth
Elevation
Range (km)
Doppler Factor
iOS Compass Heading
iOS Angle